This demonstration page uses our WeatherBlox Daily Observations layout. Learn more.

Left ArrowRight Arrow

39.08367, -84.50855

Hourly Observations for December 12, 2019

Temp ( °F °C ) Dew Point ( °F °C ) Humidity (%) Winds ( mph kmh ) Pressure ( in mb ) Visibility ( mi km ) Precip ( " mm )
12:53 am 00:53 Clear 19 -7.2 17 -8.3 92 92 N N/A 30.59 1036 10 16 N/A
1:53 am 01:53 Clear 22 -5.6 20 -6.7 92 92 N N/A 30.60 1036 9 14 N/A
2:53 am 02:53 Clear 20 -6.7 18 -7.8 92 92 NE 3 6 30.60 1036 9 14 N/A
3:53 am 03:53 Clear with Mist and Fog 20 -6.7 18 -7.8 92 92 N N/A 30.61 1037 6 10 N/A
4:53 am 04:53 Clear 20 -6.7 19 -7.2 96 96 N N/A 30.59 1036 7 11 N/A
5:53 am 05:53 Clear with Mist and Fog 20 -6.7 18 -7.8 92 92 N N/A 30.59 1036 6 10 N/A
6:53 am 06:53 Clear 20 -6.7 18 -7.8 92 92 N N/A 30.59 1036 10 16 N/A
7:53 am 07:53 Sunny 20 -6.7 18 -7.8 92 92 N N/A 30.60 1036 6 10 N/A
8:53 am 08:53 Sunny 24 -4.4 21 -6.1 88 88 N N/A 30.60 1036 10 16 N/A
9:53 am 09:53 Sunny 30 -1.1 24 -4.4 79 79 N N/A 30.59 1036 10 16 N/A
10:53 am 10:53 Sunny 36 2.2 26 -3.3 67 67 N N/A 30.57 1035 10 16 N/A
11:53 am 11:53 Sunny 39 3.9 24 -4.4 55 55 S 6 9 30.53 1034 10 16 N/A
12:53 pm 12:53 Sunny 41 5 25 -3.9 53 53 SSE 5 7 30.50 1033 10 16 N/A
1:53 pm 13:53 Sunny 44 6.7 25 -3.9 47 47 VRB 6 9 30.45 1031 10 16 N/A
2:53 pm 14:53 Sunny 44 6.7 25 -3.9 47 47 SE 7 11 30.41 1030 10 16 N/A
3:53 pm 15:53 Sunny 44 6.7 25 -3.9 47 47 ESE 8 13 30.39 1029 10 16 N/A
4:53 pm 16:53 Sunny 43 6.1 25 -3.9 49 49 E 5 7 30.36 1028 10 16 N/A
5:53 pm 17:53 Clear 39 3.9 26 -3.3 60 60 N N/A 30.34 1027 10 16 N/A
6:53 pm 18:53 Clear 40 4.4 25 -3.9 55 55 ENE 3 6 30.32 1027 10 16 N/A
7:53 pm 19:53 Clear 33 0.6 27 -2.8 78 78 N N/A 30.30 1026 10 16 N/A
8:53 pm 20:53 Clear 31 -0.6 26 -3.3 82 82 N N/A 30.29 1026 10 16 N/A
9:53 pm 21:53 Clear 30 -1.1 26 -3.3 85 85 N N/A 30.28 1026 10 16 N/A
10:53 pm 22:53 Clear 28 -2.2 25 -3.9 88 88 N N/A 30.25 1025 10 16 N/A
11:53 pm 23:53 Clear 28 -2.2 26 -3.3 92 92 N N/A 30.23 1024 10 16 N/A

Powered by AerisWeather